星链-4217 (STARLINK-4217 )

导读

STARLINK-4217是美国太空探索技术公司(SpaceX)星链计划中的卫星,于2022年7月7日发射升空,属于星链星座组网卫星,旨在为全球提供高速低延迟卫星互联网服务,弥补地面网络覆盖盲区,推进全球互联网互联互通建设,星链系统也在卫星通信领域产生了深远影响。

基本信息
目录编号:
52999
目录名称:
STARLINK-4217
国际标识:
2022-076P
轨道中心:
EARTH
卫星名称:
星链-4217
卫星全名:
星链-4217 (STARLINK-4217 )
卫星状态:
在轨 (已飞行1520 天)
发射日期:
2022-07-07 UTC
国别 :
美国 (US)
星等 :
--
轨道信息
数据来源 国际轨道数据 AOE轨道数据
星历时间 2026-09-01T23:37:53+0800
2天前
查看轨道信息
2026-09-02T08:00:00+0800
2天前
查看轨道信息
半长轴 6840.855km 6840.858km
偏心率 0.0001118 0.0001111
轨道倾角 53.162° 53.159°
近地点辐角 83.134° 74.358°
升交点赤经 11.482° 9.855°
平近点角 276.979° 52.969°
近地点 461.953km 461.96km
远地点 463.483km 463.482km
周期 93.848分钟 93.848分钟
每日圈数 15.343951 15.343941
详细信息
固有亮度:
5
最大亮度:
2.5
卫星平台:
Starlink v1.5
覆盖范围:
全球
运营商:
太空探索技术公司
运营商所在国:
美国
制造商(研发单位):
太空探索技术公司
制造商所在国:
美国
使用方式:
暂无
卫星简介
星链(Starlink)计划是由太空探索技术公司(SpaceX)提出的一个巨型低轨卫星互联网星座项目,计划在2019年至2024年间在太空搭建由约1.2万颗卫星组成的“星链”网络,其中1584颗将部署在地球上空550千米处的近地轨道,并从2020年开始工作。该卫星仍在工作。
2D轨道图
3D轨道图
轨道高度分析图
轨道倾角分析图
轨道综合分析图
查看轨道综合分析图
交会数据列表
事件ID 空间交会对象 最接近时刻(TCA) 交会距离 交会风险概率(CRP) 交会风险指数(CRI) 操作
CDM_260904-213005-299906-626721
2026-09-04T
21:30:58+0000
0.683 km
远距离
5.966354E-5 中风险 0.71
CDM_260904-230405-299906-626721
2026-09-04T
23:04:45+0000
1.644 km
极远距离
3.25334E-6 低风险 0.45
CDM_260905-030205-299906-383521
HERMES-3 (63835)
2026-09-05T
03:02:18+0000
2.511 km
极远距离
1.707825E-6 低风险 0.4
CDM_260830-013305-299906-982921
2026-08-30T
01:33:24+0000
2.059 km
极远距离
1.373089E-6 低风险 0.38
CDM_260828-155704-873705-299921
2026-08-28T
15:57:46+0000
2.568 km
极远距离
1.316277E-6 低风险 0.37
CDM_260902-173105-113905-299924
2026-09-02T
17:31:01+0000
2.839 km
极远距离
1.267172E-6 低风险 0.37
CDM_260904-195705-299906-626721
2026-09-04T
19:57:10+0000
2.573 km
极远距离
1.142762E-6 低风险 0.36
CDM_260905-094205-181405-299921
2026-09-05T
09:42:37+0000
2.922 km
极远距离
1.139039E-6 低风险 0.36
CDM_260830-082205-299906-589421
2026-08-30T
08:22:34+0000
2.947 km
极远距离
1.043134E-6 低风险 0.35
CDM_260904-174304-873705-299921
2026-09-04T
17:43:27+0000
2.783 km
极远距离
9.499519E-7 极低风险 0.35